[[{"header":{"parameterUnit":"m.s-1","parameterCategory":1,"la1":30.2991,"la2":30.254,"lo1":-89.0895,"lo2":-89.0444,"dy":0.0017,"dx":0.0017,"nx":28,"ny":28,"refTime":"2023-07-24T21:00:00:Z","depth":0,"parameterNumber":2,"parameterNumberName":"U-component_of_WINDS"},"data":[0,0,0,0,0,0,0,0,0,0,0,0,0,0,0,0,0,0,0,0,0,0,0,0,0,0,0,0,0,0,0,0,0,0,0,0,0,0,0,0,0,0,0,0,0,0,0,0,0,0,0,0,0,0,0,0,0,0,2.327,2.3271,0,2.3342,2.3343,2.3344,2.3312,2.331,2.3308,2.3306,2.3382,2.3385,2.3389,0,0,0,0,0,0,0,0,0,0,0,0,0,2.3103,2.3106,2.327,2.3271,2.3272,2.3342,2.3343,2.3344,2.3312,2.331,2.3308,2.3306,2.338,2.3385,2.3389,0,0,0,0,0,0,0,0,0,0,0,0,0,2.3175,2.3107,2.327,2.3264,2.3264,2.3342,2.3343,2.3344,2.3313,2.331,2.3307,2.3305,2.3379,2.3384,2.339,2.3477,0,0,2.3406,2.3409,0,0,0,0,0,0,0,0,2.3171,2.3181,2.3264,2.3265,2.3265,2.3315,2.3312,2.3389,2.3313,2.3294,2.3306,2.3303,2.3362,2.3368,2.3388,2.3481,2.3484,2.3407,2.341,2.3413,2.3414,0,0,0,0,0,0,0,2.3166,2.3178,2.3298,2.3265,2.3266,2.3258,2.3265,2.3326,2.3342,2.3296,2.3293,2.3302,2.3361,2.3383,2.3389,2.3485,2.3407,2.3412,2.3415,2.3417,2.365,2.3653,0,0,0,0,0,0,2.3161,2.3174,2.3296,2.3301,2.321,2.3263,2.3271,2.3302,2.3341,2.3345,2.3305,2.3301,2.3375,2.3383,2.3392,2.3495,2.3413,2.3418,2.3421,2.3648,2.3651,2.3654,0,0,0,0,0,0,2.3158,2.3172,2.3293,2.3237,2.3251,2.3269,2.3303,2.3305,2.3326,2.3348,2.3351,2.3323,2.3373,2.3384,2.3456,2.3497,2.342,2.3425,2.3644,2.3649,2.3653,2.3702,0,0,0,0,0,0,2.3153,2.3171,2.3205,2.3238,2.3255,2.3356,2.3306,2.3308,2.3335,2.3331,2.3367,2.337,2.3372,2.3447,2.3461,2.3503,2.343,2.364,2.3646,2.3651,2.3697,2.3708,2.3717,0,0,0,0,0,2.3147,2.3217,2.3207,2.3222,2.3297,2.3358,2.3368,2.3368,2.3339,2.3372,2.3386,2.3369,2.3491,2.3455,2.347,2.3514,2.3638,2.3645,2.3651,2.3693,2.3706,2.3717,0,0,0,0,0,0,2.319,2.3221,2.321,2.3293,2.3323,2.3353,2.3395,2.3383,2.3422,2.3416,2.3415,2.3424,2.3497,2.3513,2.3473,2.36,2.356,2.3569,2.3586,2.3599,2.3609,2.3603,2.3434,0,0,0,0,0,2.3208,2.3255,2.3281,2.3351,2.3367,2.3379,2.3405,2.3403,2.3434,2.3447,2.3466,2.3497,2.3542,2.3572,2.3615,2.37,2.3706,2.3738,2.3748,2.3756,2.3764,2.3807,2.3821,2.3676,2.3676,2.3675,0,0,2.3248,2.3271,2.3301,2.336,2.3383,2.3431,2.3389,2.3443,2.3478,2.3455,2.3522,2.3538,2.3572,2.365,2.3686,2.3666,2.3805,2.3764,2.377,2.3774,2.3815,2.3829,2.3841,2.368,2.3679,2.3679,0,0,2.3344,2.3367,2.3427,2.345,2.3485,2.3493,2.3507,2.3538,2.3547,2.3615,2.3598,2.364,2.3719,2.3743,2.3766,2.3869,2.3853,2.3883,2.3935,2.3978,2.3989,2.3999,2.4034,2.4046,2.3891,2.3892,2.3892,0,2.3389,2.346,2.3459,2.3513,2.3539,2.3519,2.3579,2.3602,2.365,2.3667,2.3645,2.3741,2.3763,2.3845,2.387,2.389,2.3905,2.3878,2.3987,2.3998,2.4007,2.404,2.4053,2.3895,2.3894,2.3894,2.3894,0,2.3512,2.3562,2.3606,2.3651,2.3682,2.3739,2.3745,2.3777,2.3771,2.3781,2.3849,2.3875,2.3921,2.3941,2.3937,2.4022,2.4008,2.3987,2.3946,2.4024,2.4055,2.4067,2.3899,2.3898,2.3897,2.3896,0,0,2.3637,2.3679,2.3695,2.3714,2.3751,2.3789,2.3844,2.3889,2.3915,2.3948,2.3993,2.4059,2.4039,2.4065,2.4063,2.4101,2.4178,2.4074,2.4075,2.4091,2.427,2.4285,2.4299,2.4168,2.4171,2.4173,2.4267,0,2.3733,2.3829,2.3829,2.3918,2.3962,2.3944,2.3992,2.4019,2.4029,2.4068,2.408,2.4125,2.4096,2.4111,2.4148,2.4161,2.4214,2.4154,2.4209,2.4211,2.4199,2.4316,2.4332,2.4419,2.4279,2.4281,2.4282,0,2.3859,2.3895,2.3987,2.4015,2.4034,2.4077,2.4116,2.4155,2.4185,2.4189,2.4217,2.4209,2.4264,2.4223,2.4298,2.4258,2.428,2.429,2.4293,2.4297,2.425,2.432,2.4447,2.4459,2.4302,2.43,2.4299,0,2.3937,2.4009,2.4073,2.409,2.4125,2.4155,2.4171,2.4198,2.4224,2.4259,2.4276,2.4318,2.434,2.4372,2.4375,2.4345,2.445,2.4409,2.4454,2.4454,2.4475,2.4473,2.4605,2.4494,2.4493,2.4493,2.4493,0,2.4044,2.4101,2.4108,2.4147,2.4209,2.4209,2.4271,2.4284,2.4308,2.4349,2.4336,2.4375,2.4378,2.4417,2.442,2.448,2.4491,2.4496,2.4495,2.4496,2.4495,2.4509,2.4502,2.4497,2.4496,2.4495,2.4494,0,2.4142,2.4149,2.4217,2.4244,2.4252,2.4296,2.4319,2.4356,2.4364,2.4415,2.4428,2.4441,2.4486,2.4493,2.4547,2.4549,2.462,2.4615,2.461,2.4608,2.4651,2.4646,2.4795,2.4813,2.4692,2.4693,2.4694,0,2.4208,2.4251,2.4282,2.4308,2.4325,2.4367,2.4393,2.4394,2.4422,2.4458,2.449,2.4534,2.4569,2.4643,2.4657,2.4698,2.4692,2.4741,2.4698,2.4696,2.469,2.4686,2.4689,2.4749,2.475,2.4751,2.4752,0,2.4325,2.4326,2.4364,2.4402,2.4434,2.4465,2.4494,2.4516,2.452,2.4552,2.4597,2.4625,2.4678,2.4722,2.4762,2.4778,2.4765,2.4766,2.4778,2.4777,2.4771,2.4773,2.463,2.4762,2.4761,2.476,2.476,2.4759,2.4407,2.4443,2.447,2.4512,2.4534,2.4561,2.4595,2.4608,2.4646,2.4689,2.4687,2.4737,2.4764,2.4816,2.4835,2.4874,2.4858,2.4876,2.488,2.4884,2.4887,2.4767,2.4881,2.4881,2.4881,2.4881,2.4881,0,2.4521,2.4537,2.4575,2.4615,2.4648,2.4634,2.4664,2.4693,2.4736,2.4763,2.4797,2.4848,2.489,2.4907,2.4948,2.4975,2.497,2.4986,2.4982,2.4986,2.49,2.4884,2.4989,2.4989,2.4988,2.4988,2.4988,2.4988,2.4584,2.4643,2.4647,2.4717,2.4732,2.478,2.4799,2.4823,2.4844,2.4901,2.4935,2.4946,2.4968,2.501,2.5047,2.5051,2.5066,2.5083,2.5084,2.5003,2.4992,2.4982,2.4967,2.5087,2.5087,2.5166,2.5167,2.5168]},{"header":{"parameterUnit":"m.s-1","parameterCategory":1,"la1":30.2991,"la2":30.254,"lo1":-89.0895,"lo2":-89.0444,"dy":0.0017,"dx":0.0017,"nx":28,"ny":28,"refTime":"2023-07-24T21:00:00:Z","depth":0,"parameterNumber":3,"parameterNumberName":"V-component_of_WINDS"},"data":[0,0,0,0,0,0,0,0,0,0,0,0,0,0,0,0,0,0,0,0,0,0,0,0,0,0,0,0,0,0,0,0,0,0,0,0,0,0,0,0,0,0,0,0,0,0,0,0,0,0,0,0,0,0,0,0,0,0,1.7747,1.7747,0,1.7747,1.7747,1.7747,1.7724,1.7723,1.7722,1.7722,1.7721,1.7721,1.7722,0,0,0,0,0,0,0,0,0,0,0,0,0,1.7724,1.7725,1.7747,1.7747,1.7747,1.7747,1.7747,1.7747,1.7724,1.7723,1.7722,1.7722,1.772,1.7721,1.7722,0,0,0,0,0,0,0,0,0,0,0,0,0,1.773,1.7725,1.7747,1.7736,1.7734,1.7747,1.7747,1.7747,1.7724,1.7723,1.7722,1.7721,1.772,1.7721,1.7722,1.7745,0,0,1.7724,1.7725,0,0,0,0,0,0,0,0,1.773,1.7731,1.7737,1.7736,1.7735,1.7734,1.7739,1.7746,1.7724,1.7728,1.7722,1.7721,1.7726,1.7726,1.7728,1.7745,1.7745,1.7724,1.7725,1.7725,1.7725,0,0,0,0,0,0,0,1.773,1.7731,1.7747,1.7737,1.7736,1.7729,1.7729,1.774,1.7732,1.7728,1.7726,1.7726,1.7725,1.7727,1.7728,1.7745,1.7724,1.7725,1.7725,1.7726,1.7778,1.7779,0,0,0,0,0,0,1.7731,1.7731,1.7747,1.7747,1.773,1.7731,1.773,1.7736,1.7732,1.773,1.7727,1.7725,1.7726,1.7727,1.7728,1.7753,1.7725,1.7726,1.7726,1.7777,1.7778,1.7779,0,0,0,0,0,0,1.7731,1.7733,1.7747,1.7738,1.774,1.7732,1.7738,1.7736,1.7738,1.7731,1.773,1.7731,1.7726,1.7727,1.774,1.7753,1.7726,1.7727,1.7776,1.7778,1.7779,1.7805,0,0,0,0,0,0,1.773,1.7733,1.7742,1.7739,1.774,1.7761,1.7739,1.7737,1.774,1.7738,1.7735,1.7733,1.7725,1.7739,1.7741,1.7753,1.7728,1.7775,1.7777,1.7778,1.7803,1.7807,1.781,0,0,0,0,0,1.7729,1.775,1.7743,1.7745,1.7752,1.7761,1.7762,1.7753,1.7741,1.775,1.7745,1.7733,1.7751,1.7741,1.7743,1.7755,1.7774,1.7776,1.7778,1.7801,1.7806,1.781,0,0,0,0,0,0,1.7755,1.7749,1.7741,1.7762,1.7762,1.7757,1.7768,1.7759,1.7762,1.776,1.7747,1.7747,1.7762,1.776,1.7749,1.7776,1.7761,1.7763,1.7777,1.7782,1.7786,1.7785,1.7728,0,0,0,0,0,1.7763,1.7771,1.7766,1.7784,1.7785,1.7777,1.778,1.7773,1.7773,1.7773,1.7769,1.7769,1.7774,1.7778,1.7783,1.7803,1.7801,1.7812,1.7816,1.7819,1.7821,1.7829,1.7834,1.7786,1.7786,1.7786,0,0,1.7779,1.7777,1.7783,1.7789,1.7789,1.7797,1.7777,1.7787,1.7792,1.7774,1.7787,1.7784,1.7783,1.7799,1.7806,1.7798,1.7834,1.7822,1.7824,1.7824,1.7832,1.7836,1.784,1.7788,1.7787,1.7787,0,0,1.7813,1.7813,1.7827,1.7827,1.7827,1.7821,1.7824,1.7821,1.7818,1.7831,1.7816,1.7822,1.7833,1.7832,1.7833,1.7864,1.7853,1.7866,1.7886,1.7894,1.7898,1.7901,1.791,1.7914,1.7868,1.7869,1.7869,0,1.7834,1.7846,1.7836,1.7846,1.7848,1.7832,1.7845,1.7845,1.7846,1.7848,1.7839,1.785,1.7848,1.7863,1.787,1.7872,1.7874,1.7866,1.7898,1.7901,1.7904,1.7913,1.7917,1.787,1.787,1.787,1.787,0,1.787,1.7879,1.789,1.7891,1.7894,1.7906,1.7897,1.7901,1.7893,1.7888,1.79,1.7897,1.79,1.7903,1.7896,1.7916,1.7911,1.79,1.7884,1.791,1.7918,1.7922,1.7872,1.7872,1.7871,1.7871,0,0,1.792,1.7915,1.7919,1.7918,1.7916,1.7922,1.7932,1.7935,1.7938,1.7939,1.7946,1.7955,1.7944,1.7945,1.7937,1.7944,1.7967,1.7932,1.7932,1.7938,1.7988,1.7995,1.7999,1.796,1.7961,1.7961,1.7987,0,1.7952,1.7969,1.796,1.7978,1.7985,1.7969,1.7978,1.7977,1.7972,1.7976,1.797,1.7976,1.7962,1.7963,1.7969,1.7963,1.7977,1.7961,1.7965,1.7966,1.7965,1.8004,1.8012,1.8037,1.7991,1.7991,1.7992,0,1.7991,1.7993,1.8012,1.8007,1.8009,1.8017,1.8018,1.8023,1.802,1.8016,1.8017,1.8006,1.8015,1.7999,1.801,1.7999,1.8,1.7997,1.7998,1.7997,1.798,1.8003,1.8045,1.8048,1.7997,1.7997,1.7996,0,1.8023,1.8031,1.8043,1.8043,1.8038,1.8043,1.8041,1.8038,1.804,1.804,1.8041,1.8043,1.8043,1.8044,1.8034,1.8024,1.8045,1.8029,1.804,1.8041,1.8045,1.8045,1.8086,1.8048,1.8048,1.8048,1.8048,0,1.8059,1.8071,1.8057,1.8064,1.8077,1.8065,1.8077,1.8073,1.807,1.8076,1.8062,1.8067,1.8054,1.8058,1.805,1.8058,1.8059,1.8055,1.8053,1.8056,1.8056,1.8055,1.8053,1.8049,1.8049,1.8048,1.8048,0,1.8097,1.8089,1.81,1.8094,1.8092,1.8101,1.8095,1.8101,1.8095,1.8101,1.8102,1.8092,1.8095,1.8086,1.8087,1.8082,1.8094,1.809,1.8095,1.8093,1.8104,1.8103,1.8146,1.8151,1.8111,1.8111,1.8112,0,1.812,1.8128,1.8122,1.8125,1.8123,1.8128,1.8129,1.8118,1.8119,1.8117,1.8122,1.8124,1.8125,1.813,1.8123,1.8124,1.8118,1.8133,1.8118,1.812,1.8116,1.8115,1.8115,1.8136,1.8136,1.8137,1.8137,0,1.816,1.8155,1.8158,1.8159,1.8161,1.8161,1.816,1.8163,1.815,1.8153,1.8156,1.8156,1.8157,1.8159,1.8158,1.8154,1.8143,1.8142,1.8144,1.8147,1.8149,1.8146,1.8102,1.8141,1.8141,1.814,1.814,1.814,1.819,1.8196,1.8192,1.8195,1.8193,1.8192,1.8197,1.8191,1.8193,1.8193,1.8186,1.819,1.8186,1.8183,1.8181,1.8183,1.8176,1.818,1.818,1.8181,1.8182,1.815,1.8183,1.8183,1.8182,1.8182,1.8182,0,1.8228,1.8224,1.8227,1.8226,1.8228,1.8218,1.8216,1.8218,1.8221,1.8219,1.8219,1.8222,1.8223,1.8215,1.8215,1.8218,1.8212,1.8218,1.8217,1.8216,1.819,1.8187,1.8222,1.8222,1.8222,1.8222,1.8222,1.8222,1.8248,1.8257,1.8251,1.8259,1.8255,1.8259,1.8258,1.8257,1.8254,1.8258,1.8258,1.8253,1.8248,1.8247,1.8247,1.8244,1.8244,1.8251,1.8247,1.8222,1.8218,1.8214,1.8212,1.8252,1.8252,1.8273,1.8273,1.8273]}]]